Regional Weather Roundup
Issued by NWS State College, PA

Home | Current Version | Previous Version | Graphics & Text | Print | Product List | Glossary On
Versions: 1 2 3 4 5 6 7 8 9 10 11 12 13 14 15 16 17 18 19 20 21 22 23 24 25 26 27 28 29 30 31 32 33 34 35 36 37 38 39 40 41 42 43 44 45 46 47 48 49 50
000
ASUS41 KCTP 200503
RWRCTP

REGIONAL WEATHER ROUNDUP
NATIONAL WEATHER SERVICE STATE COLLEGE PA
1200 AM EST MON FEB 20 2017

Note: "fair" indicates few or no clouds below 12,000 feet with no
significant weather and/or obstructions to visibility.

* = STATION THAT DOES NOT REPORT PRECIPITATION /E.G. RAIN...SNOW...ETC/
    THUNDER OR FOG.

PAZ002>004-007>009-013>016-020>023-029>032-200600-
WESTERN PENNSYLVANIA

CITY           SKY/WX    TMP DP  RH WIND       PRES   REMARKS
ERIE           CLEAR     34  30  85 S5        30.16R
MEADVILLE      CLEAR     39  31  72 NE3       30.14R
FRANKLIN*      CLEAR     39  30  70 N3        30.15R
NEW CASTLE     FAIR      38  30  73 CALM      30.16R
BEAVER COUNTY  NOT AVBL
BUTLER*        CLEAR     41  28  60 S3        30.15R
PITTSBURGH INT PTCLDY    47  42  83 W5        30.14S
PITTSBURGH     CLEAR     48  40  73 W10       30.14R
INDIANA*       PTCLDY    37  34  87 CALM      30.16R
LATROBE        CLEAR     41  41 100 S7        30.15S
WASHINGTON CO* CLEAR     43  39  87 CALM      30.17S
$$

PAZ004>006-010>012-017>019-024>028-033>037-041-042-045-046-049>053-200600-
CENTRAL PENNSYLVANIA

CITY           SKY/WX    TMP DP  RH WIND       PRES   REMARKS
BRADFORD       CLEAR     36  30  79 NW7       30.10R
DUBOIS         CLEAR     42  30  62 NW6       30.11R
CLEARFIELD       N/A    N/A N/A N/A MISG      30.10S
JOHNSTOWN      CLEAR     44  41  89 W8        30.10S
ALTOONA        CLEAR     48  37  65 W3        30.11R
STATE COLLEGE  CLEAR     47  30  51 E3        30.09R
WILLIAMSPORT   CLEAR     50  32  50 NW9       30.07R
SELINSGROVE    CLEAR     50  31  48 N10       30.06R
FT INDIANTOWN  CLEAR     56  27  32 VRB7      30.03R
CAPITAL CITY   CLEAR     57  30  35 NW12      30.03R
HARRISBURG     PTCLDY    51  34  52 W7        30.03R
YORK           CLEAR     42  35  76 CALM      30.03R
$$

PAZ038>040-043-044-047-048-054-055-060>062-067>071-200600-
EASTERN PENNSYLVANIA

CITY           SKY/WX    TMP DP  RH WIND       PRES   REMARKS
SCRANTON       CLEAR     46  33  60 N6        30.04R
MOUNT POCONO   CLEAR     41  32  70 NW10      29.99R
ALLENTOWN      CLEAR     49  30  48 N9        30.01R
QUAKERTOWN*    CLEAR     50  32  50 N6        30.02R
READING        CLEAR     49  33  54 SW6       30.01R
LANCASTER      CLEAR     54  35  48 NW10      30.02R
COATESVILLE    CLEAR     54  34  47 CALM      30.03R
POTTSTOWN      CLEAR     45  32  60 N5        30.02R
BLUE BELL      CLEAR     45  34  65 CALM      30.00R
DOYLESTOWN     CLEAR     50  32  50 CALM      30.00R
WILLOW GROVE   NOT AVBL
NORTH PHILA    CLEAR     53  35  50 NW6       30.01R
PHILADELPHIA   CLEAR     53  33  46 N7        30.00R
$$




USA.gov is the U.S. government's official web portal to all federal, state and local government web resources and services.